Private Wetterstation Wechselburg
Wetterdaten: Freitag, 06.08.2021
Datum Zeit Temp. +2m Bodentemp. Temp.+5cm Temp. Wind Windchill X Diff Temp. Feuchte +2m Feuchte +5cm Luftdruck Regen Wind Richtung Richtung Sonnenschein Taupunkt Windchill Windben
06.08.2021 00:00 14,4 C 18,9 C 14,7 C 14,6 C 14,6 C 0,2 C 87 % 94 % 1006,7 hPa 0,0 l/m 0,0 km/h (0 Bft) NO 45 0 min 12,3 C 14,6 C 0,0 km/h (0 Bft)
06.08.2021 00:05 14,3 C 18,8 C 14,6 C 14,4 C 14,4 C 0,1 C 87 % 94 % 1006,7 hPa 0,0 l/m 0,0 km/h (0 Bft) O-NO 67 0 min 12,2 C 14,4 C 0,0 km/h (0 Bft)
06.08.2021 00:10 14,1 C 18,9 C 14,5 C 14,2 C 14,2 C 0,1 C 87 % 94 % 1006,7 hPa 0,0 l/m 0,0 km/h (0 Bft) O 90 0 min 12,0 C 14,2 C 0,0 km/h (0 Bft)
06.08.2021 00:15 14,1 C 18,9 C 14,3 C 14,0 C 13,9 C 0,0 C 87 % 94 % 1006,7 hPa 0,0 l/m 0,0 km/h (0 Bft) O-NO 67 0 min 12,0 C 13,9 C 0,0 km/h (0 Bft)
06.08.2021 00:20 14,0 C 18,9 C 14,2 C 13,9 C 13,7 C 0,0 C 87 % 94 % 1006,7 hPa 0,0 l/m 0,0 km/h (0 Bft) O-NO 67 0 min 11,9 C 13,7 C 0,0 km/h (0 Bft)
06.08.2021 00:25 13,9 C 18,9 C 14,1 C 13,8 C 13,5 C 0,0 C 87 % 94 % 1006,7 hPa 0,0 l/m 0,0 km/h (0 Bft) O-NO 67 0 min 11,8 C 13,5 C 0,0 km/h (0 Bft)
06.08.2021 00:30 13,7 C 18,9 C 14,1 C 13,6 C 13,4 C 0,0 C 87 % 94 % 1006,7 hPa 0,0 l/m 0,0 km/h (0 Bft) S-SO 157 0 min 11,6 C 13,4 C 0,0 km/h (0 Bft)
06.08.2021 00:35 13,6 C 18,9 C 14,1 C 13,5 C 13,4 C 0,0 C 87 % 94 % 1006,2 hPa 0,0 l/m 0,0 km/h (0 Bft) S-SO 157 0 min 11,5 C 13,4 C 0,0 km/h (0 Bft)
06.08.2021 00:40 13,6 C 18,9 C 14,0 C 13,5 C 13,4 C 0,0 C 87 % 94 % 1006,2 hPa 0,0 l/m 0,0 km/h (0 Bft) S-SO 157 0 min 11,5 C 13,4 C 0,0 km/h (0 Bft)
06.08.2021 00:45 13,4 C 18,8 C 14,1 C 13,5 C 13,5 C 0,1 C 87 % 94 % 1006,2 hPa 0,0 l/m 0,0 km/h (0 Bft) S-SO 157 0 min 11,3 C 13,5 C 0,0 km/h (0 Bft)
06.08.2021 00:50 13,5 C 18,8 C 14,1 C 13,6 C 13,6 C 0,1 C 87 % 94 % 1006,2 hPa 0,0 l/m 0,0 km/h (0 Bft) S-SO 157 0 min 11,4 C 13,6 C 0,0 km/h (0 Bft)
06.08.2021 00:55 13,3 C 18,8 C 14,0 C 13,6 C 13,6 C 0,3 C 87 % 94 % 1006,2 hPa 0,0 l/m 0,0 km/h (0 Bft) S-SO 157 0 min 11,2 C 13,6 C 0,0 km/h (0 Bft)
06.08.2021 01:00 13,3 C 18,8 C 14,1 C 13,6 C 13,6 C 0,3 C 87 % 94 % 1006,2 hPa 0,0 l/m 0,0 km/h (0 Bft) S-SO 157 0 min 11,2 C 13,6 C 0,0 km/h (0 Bft)
06.08.2021 01:05 13,3 C 18,8 C 13,9 C 13,5 C 13,5 C 0,2 C 88 % 94 % 1006,2 hPa 0,0 l/m 0,0 km/h (0 Bft) SO 135 0 min 11,4 C 13,5 C 0,0 km/h (0 Bft)
06.08.2021 01:10 13,1 C 18,8 C 13,7 C 13,4 C 13,4 C 0,3 C 88 % 94 % 1006,2 hPa 0,0 l/m 0,0 km/h (0 Bft) O-NO 67 0 min 11,2 C 13,4 C 0,0 km/h (0 Bft)
06.08.2021 01:15 13,1 C 18,8 C 13,6 C 13,3 C 13,3 C 0,2 C 88 % 94 % 1006,1 hPa 0,0 l/m 0,0 km/h (0 Bft) O-NO 67 0 min 11,2 C 13,3 C 0,0 km/h (0 Bft)
06.08.2021 01:20 12,9 C 18,8 C 13,6 C 13,1 C 13,1 C 0,2 C 88 % 94 % 1006,1 hPa 0,0 l/m 0,0 km/h (0 Bft) O-NO 67 0 min 11,0 C 13,1 C 0,0 km/h (0 Bft)
06.08.2021 01:25 12,8 C 18,8 C 13,5 C 13,1 C 13,1 C 0,3 C 88 % 94 % 1006,1 hPa 0,0 l/m 0,0 km/h (0 Bft) O-NO 67 0 min 10,9 C 13,1 C 0,0 km/h (0 Bft)
06.08.2021 01:30 12,8 C 18,8 C 13,5 C 13,1 C 13,1 C 0,3 C 88 % 94 % 1006,1 hPa 0,0 l/m 0,0 km/h (0 Bft) O-NO 67 0 min 10,9 C 13,1 C 0,0 km/h (0 Bft)
06.08.2021 01:35 12,7 C 18,8 C 13,5 C 13,1 C 13,1 C 0,4 C 88 % 94 % 1006,0 hPa 0,0 l/m 0,0 km/h (0 Bft) O-NO 67 0 min 10,8 C 13,1 C 0,0 km/h (0 Bft)
06.08.2021 01:40 12,6 C 18,7 C 13,5 C 13,1 C 13,1 C 0,5 C 88 % 94 % 1006,0 hPa 0,0 l/m 0,0 km/h (0 Bft) O-NO 67 0 min 10,7 C 13,1 C 0,0 km/h (0 Bft)
06.08.2021 01:45 12,6 C 18,7 C 13,5 C 13,1 C 13,1 C 0,5 C 88 % 94 % 1006,0 hPa 0,0 l/m 0,0 km/h (0 Bft) O-NO 67 0 min 10,7 C 13,1 C 0,0 km/h (0 Bft)
06.08.2021 01:50 12,5 C 18,7 C 13,4 C 13,1 C 13,1 C 0,6 C 88 % 94 % 1006,0 hPa 0,0 l/m 0,0 km/h (0 Bft) O-NO 67 0 min 10,6 C 13,1 C 0,0 km/h (0 Bft)
06.08.2021 01:55 12,5 C 18,7 C 13,4 C 13,1 C 13,1 C 0,6 C 88 % 94 % 1006,1 hPa 0,0 l/m 0,0 km/h (0 Bft) O 90 0 min 10,6 C 13,1 C 0,0 km/h (0 Bft)
06.08.2021 02:00 12,4 C 18,7 C 13,4 C 13,1 C 13,1 C 0,7 C 88 % 94 % 1006,1 hPa 0,0 l/m 0,0 km/h (0 Bft) O-NO 67 0 min 10,5 C 13,1 C 0,0 km/h (0 Bft)
06.08.2021 02:05 12,3 C 18,7 C 13,3 C 13,1 C 13,1 C 0,8 C 87 % 93 % 1006,1 hPa 0,0 l/m 0,0 km/h (0 Bft) O-NO 67 0 min 10,2 C 13,1 C 0,0 km/h (0 Bft)
06.08.2021 02:10 12,3 C 18,7 C 13,3 C 13,1 C 13,1 C 0,8 C 87 % 93 % 1006,1 hPa 0,0 l/m 0,0 km/h (0 Bft) O-NO 67 0 min 10,2 C 13,1 C 0,0 km/h (0 Bft)
06.08.2021 02:15 12,2 C 18,7 C 13,3 C 13,1 C 13,1 C 0,9 C 87 % 93 % 1006,0 hPa 0,0 l/m 0,0 km/h (0 Bft) O-NO 67 0 min 10,1 C 13,1 C 0,0 km/h (0 Bft)
06.08.2021 02:20 12,3 C 18,7 C 13,4 C 13,1 C 13,1 C 0,8 C 87 % 94 % 1006,0 hPa 0,0 l/m 0,0 km/h (0 Bft) O-NO 67 0 min 10,2 C 13,1 C 0,0 km/h (0 Bft)
06.08.2021 02:25 12,3 C 18,7 C 13,4 C 13,1 C 13,1 C 0,8 C 87 % 94 % 1006,0 hPa 0,0 l/m 0,0 km/h (0 Bft) O-NO 67 0 min 10,2 C 13,1 C 0,0 km/h (0 Bft)
06.08.2021 02:30 12,3 C 18,7 C 13,4 C 13,1 C 13,1 C 0,8 C 87 % 94 % 1006,0 hPa 0,0 l/m 0,0 km/h (0 Bft) O-SO 112 0 min 10,2 C 13,1 C 0,0 km/h (0 Bft)
06.08.2021 02:35 12,2 C 18,7 C 13,3 C 13,1 C 13,1 C 0,9 C 87 % 93 % 1006,1 hPa 0,0 l/m 0,0 km/h (0 Bft) O-SO 112 0 min 10,1 C 13,1 C 0,0 km/h (0 Bft)
06.08.2021 02:40 12,1 C 18,6 C 13,3 C 13,1 C 13,1 C 1,0 C 87 % 93 % 1006,1 hPa 0,0 l/m 0,0 km/h (0 Bft) O-NO 67 0 min 10,0 C 13,1 C 0,0 km/h (0 Bft)
06.08.2021 02:45 12,1 C 18,6 C 13,3 C 13,1 C 13,1 C 1,0 C 87 % 93 % 1006,1 hPa 0,0 l/m 0,0 km/h (0 Bft) O-NO 67 0 min 10,0 C 13,1 C 0,0 km/h (0 Bft)
06.08.2021 02:50 12,1 C 18,6 C 13,4 C 13,2 C 13,2 C 1,1 C 87 % 94 % 1006,1 hPa 0,0 l/m 0,0 km/h (0 Bft) NO 45 0 min 10,0 C 13,2 C 0,0 km/h (0 Bft)
06.08.2021 02:55 12,1 C 18,6 C 13,3 C 13,2 C 13,2 C 1,1 C 87 % 93 % 1005,9 hPa 0,0 l/m 0,0 km/h (0 Bft) NO 45 0 min 10,0 C 13,2 C 0,0 km/h (0 Bft)
06.08.2021 03:00 12,1 C 18,6 C 13,3 C 13,2 C 13,2 C 1,1 C 87 % 93 % 1005,9 hPa 0,0 l/m 0,0 km/h (0 Bft) NO 45 0 min 10,0 C 13,2 C 0,0 km/h (0 Bft)
06.08.2021 03:05 12,0 C 18,6 C 13,4 C 13,2 C 13,2 C 1,2 C 87 % 94 % 1005,9 hPa 0,0 l/m 0,0 km/h (0 Bft) NO 45 0 min 9,9 C 13,2 C 0,0 km/h (0 Bft)
06.08.2021 03:10 12,0 C 18,6 C 13,3 C 13,2 C 13,2 C 1,2 C 87 % 93 % 1005,9 hPa 0,0 l/m 0,0 km/h (0 Bft) NO 45 0 min 9,9 C 13,2 C 0,0 km/h (0 Bft)
06.08.2021 03:15 12,0 C 18,6 C 13,4 C 13,2 C 13,2 C 1,2 C 87 % 94 % 1005,8 hPa 0,0 l/m 0,0 km/h (0 Bft) NO 45 0 min 9,9 C 13,2 C 0,0 km/h (0 Bft)
06.08.2021 03:20 12,0 C 18,6 C 13,4 C 13,2 C 13,2 C 1,2 C 87 % 94 % 1005,8 hPa 0,0 l/m 0,0 km/h (0 Bft) O-NO 67 0 min 9,9 C 13,2 C 0,0 km/h (0 Bft)
06.08.2021 03:25 12,0 C 18,6 C 13,5 C 13,2 C 13,2 C 1,2 C 87 % 94 % 1005,8 hPa 0,0 l/m 0,0 km/h (0 Bft) O-NO 67 0 min 9,9 C 13,2 C 0,0 km/h (0 Bft)
06.08.2021 03:30 12,0 C 18,6 C 13,5 C 13,2 C 13,2 C 1,2 C 87 % 94 % 1005,8 hPa 0,0 l/m 0,0 km/h (0 Bft) O-SO 112 0 min 9,9 C 13,2 C 0,0 km/h (0 Bft)
06.08.2021 03:35 12,0 C 18,6 C 13,5 C 13,3 C 13,3 C 1,3 C 87 % 94 % 1005,8 hPa 0,0 l/m 0,0 km/h (0 Bft) O-SO 112 0 min 9,9 C 13,3 C 0,0 km/h (0 Bft)
06.08.2021 03:40 12,0 C 18,6 C 13,5 C 13,2 C 13,2 C 1,2 C 87 % 94 % 1005,8 hPa 0,0 l/m 0,0 km/h (0 Bft) O-SO 112 0 min 9,9 C 13,2 C 0,0 km/h (0 Bft)
06.08.2021 03:45 12,1 C 18,6 C 13,4 C 13,1 C 13,1 C 1,0 C 87 % 94 % 1005,8 hPa 0,0 l/m 0,0 km/h (0 Bft) O-SO 112 0 min 10,0 C 13,1 C 0,0 km/h (0 Bft)
06.08.2021 03:50 12,0 C 18,5 C 13,4 C 13,1 C 13,1 C 1,1 C 87 % 94 % 1005,8 hPa 0,0 l/m 0,0 km/h (0 Bft) O-NO 67 0 min 9,9 C 13,1 C 0,0 km/h (0 Bft)
06.08.2021 03:55 12,1 C 18,5 C 13,3 C 13,1 C 13,1 C 1,0 C 87 % 93 % 1005,8 hPa 0,0 l/m 0,0 km/h (0 Bft) O-NO 67 0 min 10,0 C 13,1 C 0,0 km/h (0 Bft)
06.08.2021 04:00 12,1 C 18,5 C 13,3 C 13,1 C 13,1 C 1,0 C 87 % 93 % 1005,8 hPa 0,0 l/m 0,0 km/h (0 Bft) SO 135 0 min 10,0 C 13,1 C 0,0 km/h (0 Bft)
06.08.2021 04:05 12,0 C 18,5 C 13,3 C 13,0 C 13,0 C 1,0 C 87 % 93 % 1005,8 hPa 0,0 l/m 0,0 km/h (0 Bft) SO 135 0 min 9,9 C 13,0 C 0,0 km/h (0 Bft)
06.08.2021 04:10 12,0 C 18,5 C 13,3 C 13,0 C 13,0 C 1,0 C 87 % 93 % 1005,8 hPa 0,0 l/m 0,0 km/h (0 Bft) SO 135 0 min 9,9 C 13,0 C 0,0 km/h (0 Bft)
06.08.2021 04:15 12,0 C 18,5 C 13,3 C 12,9 C 12,9 C 0,9 C 87 % 93 % 1005,6 hPa 0,0 l/m 0,0 km/h (0 Bft) SO 135 0 min 9,9 C 12,9 C 0,0 km/h (0 Bft)
06.08.2021 04:20 11,9 C 18,5 C 13,3 C 12,9 C 12,9 C 1,0 C 87 % 93 % 1005,6 hPa 0,0 l/m 0,0 km/h (0 Bft) SO 135 0 min 9,8 C 12,9 C 0,0 km/h (0 Bft)
06.08.2021 04:25 11,9 C 18,5 C 13,3 C 12,9 C 12,9 C 1,0 C 87 % 93 % 1005,6 hPa 0,0 l/m 0,0 km/h (0 Bft) SO 135 0 min 9,8 C 12,9 C 0,0 km/h (0 Bft)
06.08.2021 04:30 11,9 C 18,5 C 13,3 C 12,9 C 12,9 C 1,0 C 87 % 93 % 1005,6 hPa 0,0 l/m 0,0 km/h (0 Bft) SO 135 0 min 9,8 C 12,9 C 0,0 km/h (0 Bft)
06.08.2021 04:35 11,9 C 18,5 C 13,2 C 12,9 C 12,9 C 1,0 C 87 % 93 % 1005,6 hPa 0,0 l/m 0,0 km/h (0 Bft) O-NO 67 0 min 9,8 C 12,9 C 0,0 km/h (0 Bft)
06.08.2021 04:40 11,8 C 18,5 C 13,2 C 12,8 C 12,8 C 1,0 C 87 % 93 % 1005,6 hPa 0,0 l/m 0,0 km/h (0 Bft) O-NO 67 0 min 9,7 C 12,8 C 0,0 km/h (0 Bft)
06.08.2021 04:45 11,9 C 18,5 C 13,1 C 12,8 C 12,8 C 0,9 C 87 % 93 % 1005,6 hPa 0,0 l/m 0,0 km/h (0 Bft) O-NO 67 0 min 9,8 C 12,8 C 0,0 km/h (0 Bft)
06.08.2021 04:50 11,9 C 18,5 C 13,1 C 12,7 C 12,7 C 0,8 C 87 % 93 % 1005,6 hPa 0,0 l/m 0,0 km/h (0 Bft) O-NO 67 0 min 9,8 C 12,7 C 0,0 km/h (0 Bft)
06.08.2021 04:55 11,8 C 18,4 C 13,1 C 12,6 C 12,6 C 0,8 C 87 % 93 % 1005,4 hPa 0,0 l/m 0,0 km/h (0 Bft) O-SO 112 0 min 9,7 C 12,6 C 0,0 km/h (0 Bft)
06.08.2021 05:00 11,7 C 18,4 C 13,1 C 12,5 C 12,5 C 0,8 C 88 % 93 % 1005,4 hPa 0,0 l/m 0,0 km/h (0 Bft) O-NO 67 0 min 9,8 C 12,5 C 0,0 km/h (0 Bft)
06.08.2021 05:05 11,7 C 18,4 C 13,0 C 12,5 C 12,5 C 0,8 C 87 % 93 % 1005,4 hPa 0,0 l/m 0,0 km/h (0 Bft) O-NO 67 0 min 9,6 C 12,5 C 0,0 km/h (0 Bft)
06.08.2021 05:10 11,6 C 18,4 C 12,9 C 12,4 C 12,4 C 0,8 C 87 % 93 % 1005,4 hPa 0,0 l/m 0,0 km/h (0 Bft) O-NO 67 0 min 9,5 C 12,4 C 0,0 km/h (0 Bft)
06.08.2021 05:15 11,7 C 18,4 C 12,9 C 12,2 C 12,2 C 0,5 C 87 % 93 % 1005,4 hPa 0,0 l/m 0,0 km/h (0 Bft) O-NO 67 0 min 9,6 C 12,2 C 0,0 km/h (0 Bft)
06.08.2021 05:20 11,6 C 18,4 C 12,8 C 12,1 C 12,1 C 0,5 C 88 % 93 % 1005,4 hPa 0,0 l/m 0,0 km/h (0 Bft) SO 135 0 min 9,7 C 12,1 C 0,0 km/h (0 Bft)
06.08.2021 05:25 11,5 C 18,4 C 12,8 C 12,1 C 12,1 C 0,6 C 88 % 93 % 1005,4 hPa 0,0 l/m 0,0 km/h (0 Bft) O-NO 67 0 min 9,6 C 12,1 C 0,0 km/h (0 Bft)
06.08.2021 05:30 11,4 C 18,4 C 12,7 C 12,1 C 12,1 C 0,7 C 88 % 93 % 1005,4 hPa 0,0 l/m 0,0 km/h (0 Bft) O-NO 67 0 min 9,5 C 12,1 C 0,0 km/h (0 Bft)
06.08.2021 05:35 11,5 C 18,4 C 12,7 C 11,9 C 11,9 C 0,4 C 88 % 93 % 1005,4 hPa 0,0 l/m 0,0 km/h (0 Bft) O-SO 112 0 min 9,6 C 11,9 C 0,0 km/h (0 Bft)
06.08.2021 05:40 11,3 C 18,4 C 12,7 C 11,9 C 11,9 C 0,6 C 88 % 94 % 1005,4 hPa 0,0 l/m 0,0 km/h (0 Bft) O-NO 67 0 min 9,4 C 11,9 C 0,0 km/h (0 Bft)
06.08.2021 05:45 11,3 C 18,4 C 12,6 C 11,9 C 11,9 C 0,6 C 88 % 94 % 1005,4 hPa 0,0 l/m 0,0 km/h (0 Bft) O-NO 67 0 min 9,4 C 11,9 C 0,0 km/h (0 Bft)
06.08.2021 05:50 11,2 C 18,3 C 12,5 C 11,8 C 11,8 C 0,6 C 88 % 94 % 1005,4 hPa 0,0 l/m 0,0 km/h (0 Bft) O-NO 67 0 min 9,3 C 11,8 C 0,0 km/h (0 Bft)
06.08.2021 05:55 11,2 C 18,3 C 12,5 C 11,8 C 11,8 C 0,6 C 88 % 94 % 1005,2 hPa 0,0 l/m 0,0 km/h (0 Bft) O-NO 67 5 min 9,3 C 11,8 C 0,0 km/h (0 Bft)
06.08.2021 06:00 11,1 C 18,3 C 12,4 C 11,7 C 11,7 C 0,6 C 88 % 94 % 1005,2 hPa 0,0 l/m 0,0 km/h (0 Bft) O-NO 67 5 min 9,2 C 11,7 C 0,0 km/h (0 Bft)
06.08.2021 06:05 11,0 C 18,3 C 12,4 C 11,5 C 11,5 C 0,5 C 88 % 94 % 1005,2 hPa 0,0 l/m 0,0 km/h (0 Bft) O-NO 67 5 min 9,1 C 11,5 C 0,0 km/h (0 Bft)
06.08.2021 06:10 11,1 C 18,3 C 12,3 C 11,4 C 11,4 C 0,3 C 88 % 94 % 1005,2 hPa 0,0 l/m 0,0 km/h (0 Bft) O-NO 67 0 min 9,2 C 11,4 C 0,0 km/h (0 Bft)
06.08.2021 06:15 10,9 C 18,4 C 12,3 C 11,5 C 11,5 C 0,6 C 88 % 94 % 1005,4 hPa 0,0 l/m 0,0 km/h (0 Bft) O-NO 67 0 min 9,0 C 11,5 C 0,0 km/h (0 Bft)
06.08.2021 06:20 10,9 C 18,4 C 12,2 C 11,4 C 11,4 C 0,5 C 88 % 94 % 1005,4 hPa 0,0 l/m 0,0 km/h (0 Bft) O-NO 67 0 min 9,0 C 11,4 C 0,0 km/h (0 Bft)
06.08.2021 06:25 10,8 C 18,4 C 12,2 C 11,4 C 11,4 C 0,6 C 88 % 94 % 1005,4 hPa 0,0 l/m 0,0 km/h (0 Bft) O-NO 67 0 min 8,9 C 11,4 C 0,0 km/h (0 Bft)
06.08.2021 06:30 10,8 C 18,3 C 12,2 C 11,5 C 11,5 C 0,7 C 88 % 94 % 1005,4 hPa 0,0 l/m 0,0 km/h (0 Bft) O-NO 67 0 min 8,9 C 11,5 C 0,0 km/h (0 Bft)
06.08.2021 06:35 10,9 C 18,3 C 12,2 C 11,7 C 11,7 C 0,8 C 88 % 94 % 1005,8 hPa 0,0 l/m 0,0 km/h (0 Bft) O-NO 67 0 min 9,0 C 11,7 C 0,0 km/h (0 Bft)
06.08.2021 06:40 10,8 C 18,3 C 12,2 C 11,7 C 11,7 C 0,9 C 88 % 94 % 1005,8 hPa 0,0 l/m 0,0 km/h (0 Bft) O-NO 67 0 min 8,9 C 11,7 C 0,0 km/h (0 Bft)
06.08.2021 06:45 10,8 C 18,3 C 12,3 C 11,9 C 11,9 C 1,1 C 88 % 94 % 1005,8 hPa 0,0 l/m 0,0 km/h (0 Bft) O-NO 67 0 min 8,9 C 11,9 C 0,0 km/h (0 Bft)
06.08.2021 06:50 10,8 C 18,3 C 12,3 C 11,9 C 11,9 C 1,1 C 88 % 94 % 1005,8 hPa 0,0 l/m 0,0 km/h (0 Bft) O-NO 67 0 min 8,9 C 11,9 C 0,0 km/h (0 Bft)
06.08.2021 06:55 10,8 C 18,2 C 12,5 C 12,1 C 12,1 C 1,3 C 88 % 94 % 1005,8 hPa 0,0 l/m 0,0 km/h (0 Bft) O-NO 67 0 min 8,9 C 12,1 C 0,0 km/h (0 Bft)
06.08.2021 07:00 10,8 C 18,2 C 12,6 C 12,2 C 12,2 C 1,4 C 88 % 94 % 1005,8 hPa 0,0 l/m 0,0 km/h (0 Bft) O-NO 67 0 min 8,9 C 12,2 C 0,0 km/h (0 Bft)
06.08.2021 07:05 10,8 C 18,2 C 12,6 C 12,3 C 12,3 C 1,5 C 88 % 93 % 1005,8 hPa 0,0 l/m 0,0 km/h (0 Bft) O-NO 67 0 min 8,9 C 12,3 C 0,0 km/h (0 Bft)
06.08.2021 07:10 10,8 C 18,2 C 12,6 C 12,3 C 12,3 C 1,5 C 88 % 93 % 1005,8 hPa 0,0 l/m 0,0 km/h (0 Bft) O-NO 67 0 min 8,9 C 12,3 C 0,0 km/h (0 Bft)
06.08.2021 07:15 11,2 C 18,2 C 13,2 C 15,5 C 15,5 C 4,3 C 88 % 93 % 1005,8 hPa 0,0 l/m 0,0 km/h (0 Bft) SO 135 5 min 9,3 C 15,5 C 0,0 km/h (0 Bft)
06.08.2021 07:20 11,3 C 18,2 C 13,4 C 16,9 C 16,9 C 5,6 C 88 % 94 % 1005,8 hPa 0,0 l/m 0,0 km/h (0 Bft) SO 135 5 min 9,4 C 16,9 C 0,0 km/h (0 Bft)
06.08.2021 07:25 11,9 C 18,2 C 13,5 C 18,7 C 18,7 C 6,8 C 88 % 94 % 1005,8 hPa 0,0 l/m 0,0 km/h (0 Bft) O-NO 67 5 min 10,0 C 18,7 C 0,0 km/h (0 Bft)
06.08.2021 07:30 12,1 C 18,2 C 13,6 C 20,1 C 20,1 C 8,0 C 88 % 94 % 1005,8 hPa 0,0 l/m 0,0 km/h (0 Bft) O-NO 67 5 min 10,2 C 20,1 C 0,0 km/h (0 Bft)
06.08.2021 07:35 12,4 C 18,2 C 13,7 C 21,4 C 21,4 C 9,0 C 88 % 94 % 1005,8 hPa 0,0 l/m 0,0 km/h (0 Bft) SO 135 5 min 10,5 C 21,4 C 0,0 km/h (0 Bft)
06.08.2021 07:40 12,5 C 18,2 C 13,8 C 22,2 C 22,2 C 9,7 C 88 % 94 % 1005,8 hPa 0,0 l/m 0,0 km/h (0 Bft) SO 135 5 min 10,6 C 22,2 C 0,0 km/h (0 Bft)
06.08.2021 07:45 12,8 C 18,2 C 13,9 C 23,1 C 23,1 C 10,3 C 88 % 94 % 1005,8 hPa 0,0 l/m 0,0 km/h (0 Bft) NO 45 5 min 10,9 C 23,1 C 0,0 km/h (0 Bft)
06.08.2021 07:50 13,1 C 18,2 C 13,9 C 23,2 C 23,2 C 10,1 C 88 % 94 % 1005,8 hPa 0,0 l/m 0,0 km/h (0 Bft) O-NO 67 5 min 11,2 C 23,2 C 0,0 km/h (0 Bft)
06.08.2021 07:55 13,6 C 18,3 C 14,1 C 24,1 C 24,1 C 10,5 C 89 % 94 % 1005,8 hPa 0,0 l/m 0,0 km/h (0 Bft) O-NO 67 5 min 11,8 C 24,1 C 0,0 km/h (0 Bft)
06.08.2021 08:00 13,7 C 18,3 C 14,2 C 24,7 C 24,7 C 11,0 C 89 % 94 % 1005,8 hPa 0,0 l/m 0,0 km/h (0 Bft) SO 135 5 min 11,9 C 24,7 C 0,0 km/h (0 Bft)
06.08.2021 08:05 14,1 C 18,3 C 14,3 C 25,5 C 25,5 C 11,4 C 89 % 93 % 1005,8 hPa 0,0 l/m 0,0 km/h (0 Bft) SO 135 5 min 12,3 C 25,5 C 0,0 km/h (0 Bft)
06.08.2021 08:10 14,3 C 18,3 C 14,3 C 26,0 C 26,0 C 11,7 C 89 % 93 % 1005,8 hPa 0,0 l/m 0,0 km/h (0 Bft) SO 135 5 min 12,5 C 26,0 C 0,0 km/h (0 Bft)
06.08.2021 08:15 14,7 C 18,3 C 14,5 C 26,8 C 26,8 C 12,1 C 89 % 93 % 1005,9 hPa 0,0 l/m 0,0 km/h (0 Bft) SO 135 5 min 12,9 C 26,8 C 0,0 km/h (0 Bft)
06.08.2021 08:20 15,0 C 18,3 C 14,6 C 27,4 C 27,4 C 12,4 C 89 % 93 % 1005,9 hPa 0,0 l/m 0,0 km/h (0 Bft) S-SO 157 5 min 13,2 C 27,4 C 0,0 km/h (0 Bft)
06.08.2021 08:25 15,5 C 18,3 C 14,7 C 27,9 C 27,9 C 12,4 C 89 % 93 % 1005,9 hPa 0,0 l/m 0,0 km/h (0 Bft) S-SO 157 5 min 13,7 C 27,9 C 0,0 km/h (0 Bft)
06.08.2021 08:30 15,9 C 18,3 C 14,8 C 28,3 C 28,3 C 12,4 C 89 % 93 % 1005,9 hPa 0,0 l/m 0,0 km/h (0 Bft) S-SO 157 5 min 14,1 C 28,3 C 0,0 km/h (0 Bft)
06.08.2021 08:35 16,4 C 18,3 C 15,0 C 28,8 C 28,8 C 12,4 C 88 % 93 % 1005,7 hPa 0,0 l/m 0,0 km/h (0 Bft) SO 135 5 min 14,4 C 28,8 C 0,0 km/h (0 Bft)
06.08.2021 08:40 16,5 C 18,3 C 15,1 C 28,4 C 28,4 C 11,9 C 89 % 93 % 1005,7 hPa 0,0 l/m 0,0 km/h (0 Bft) W-SW 247 5 min 14,7 C 28,4 C 0,0 km/h (0 Bft)
06.08.2021 08:45 16,8 C 18,2 C 15,1 C 28,8 C 28,8 C 12,0 C 88 % 93 % 1005,7 hPa 0,0 l/m 0,0 km/h (0 Bft) S-SO 157 5 min 14,8 C 28,8 C 0,0 km/h (0 Bft)
06.08.2021 08:50 17,2 C 18,2 C 15,3 C 29,0 C 29,0 C 11,8 C 88 % 93 % 1005,7 hPa 0,0 l/m 0,0 km/h (0 Bft) SO 135 5 min 15,2 C 29,0 C 0,0 km/h (0 Bft)
06.08.2021 08:55 17,6 C 18,2 C 15,4 C 29,2 C 29,2 C 11,6 C 87 % 93 % 1005,6 hPa 0,0 l/m 0,0 km/h (0 Bft) SO 135 5 min 15,4 C 29,2 C 0,0 km/h (0 Bft)
06.08.2021 09:00 17,9 C 18,2 C 15,5 C 29,3 C 29,3 C 11,4 C 87 % 93 % 1005,6 hPa 0,0 l/m 0,2 km/h (0 Bft) O 90 5 min 15,7 C 29,3 C 4,3 km/h (1 Bft)
06.08.2021 09:05 18,3 C 18,2 C 15,6 C 29,4 C 29,4 C 11,1 C 87 % 93 % 1005,6 hPa 0,0 l/m 0,2 km/h (0 Bft) SO 135 5 min 16,1 C 29,4 C 0,0 km/h (0 Bft)
06.08.2021 09:10 18,7 C 18,2 C 15,8 C 29,2 C 29,2 C 10,5 C 86 % 93 % 1005,6 hPa 0,0 l/m 0,2 km/h (0 Bft) O 90 5 min 16,3 C 29,2 C 0,0 km/h (0 Bft)
06.08.2021 09:15 19,5 C 18,1 C 15,8 C 25,9 C 25,9 C 6,4 C 86 % 93 % 1005,5 hPa 0,0 l/m 0,2 km/h (0 Bft) S 180 5 min 17,1 C 25,9 C 0,0 km/h (0 Bft)
06.08.2021 09:20 19,9 C 18,1 C 15,9 C 23,7 C 23,7 C 3,8 C 86 % 93 % 1005,5 hPa 0,0 l/m 0,2 km/h (0 Bft) SW 225 5 min 17,5 C 23,7 C 0,0 km/h (0 Bft)
06.08.2021 09:25 20,1 C 18,1 C 16,0 C 22,0 C 22,0 C 1,9 C 84 % 93 % 1005,5 hPa 0,0 l/m 0,0 km/h (0 Bft) W-SW 247 0 min 17,3 C 22,0 C 0,0 km/h (0 Bft)
06.08.2021 09:30 19,9 C 18,0 C 16,1 C 22,8 C 22,8 C 2,9 C 84 % 94 % 1005,5 hPa 0,0 l/m 0,0 km/h (0 Bft) N-NO 22 0 min 17,1 C 22,8 C 0,0 km/h (0 Bft)
06.08.2021 09:35 19,7 C 18,1 C 16,2 C 22,3 C 22,3 C 2,6 C 83 % 94 % 1005,5 hPa 0,0 l/m 0,2 km/h (0 Bft) S-SW 202 0 min 16,7 C 22,3 C 0,0 km/h (0 Bft)
06.08.2021 09:40 19,7 C 18,1 C 16,3 C 21,6 C 21,6 C 1,9 C 82 % 94 % 1005,5 hPa 0,0 l/m 0,2 km/h (0 Bft) W-SW 247 0 min 16,5 C 21,6 C 0,0 km/h (0 Bft)
06.08.2021 09:45 19,5 C 18,1 C 16,4 C 20,9 C 20,9 C 1,4 C 82 % 94 % 1005,5 hPa 0,0 l/m 0,0 km/h (0 Bft) S-SW 202 0 min 16,3 C 20,9 C 0,0 km/h (0 Bft)
06.08.2021 09:50 19,5 C 18,1 C 16,5 C 20,7 C 20,7 C 1,2 C 82 % 94 % 1005,5 hPa 0,0 l/m 0,0 km/h (0 Bft) NO 45 0 min 16,3 C 20,7 C 0,0 km/h (0 Bft)
06.08.2021 09:55 19,5 C 18,0 C 16,6 C 20,7 C 20,7 C 1,2 C 81 % 94 % 1005,4 hPa 0,0 l/m 0,0 km/h (0 Bft) W-SW 247 0 min 16,1 C 20,7 C 0,0 km/h (0 Bft)
06.08.2021 10:00 19,2 C 17,9 C 16,7 C 20,7 C 20,7 C 1,5 C 81 % 94 % 1005,4 hPa 0,0 l/m 0,0 km/h (0 Bft) SW 225 0 min 15,9 C 20,7 C 0,0 km/h (0 Bft)
06.08.2021 10:05 19,3 C 17,8 C 16,8 C 21,9 C 21,9 C 2,6 C 81 % 94 % 1005,4 hPa 0,0 l/m 0,0 km/h (0 Bft) S-SW 202 0 min 16,0 C 21,9 C 1,6 km/h (1 Bft)
06.08.2021 10:10 19,3 C 17,8 C 16,9 C 21,9 C 21,9 C 2,6 C 81 % 94 % 1005,4 hPa 0,0 l/m 0,0 km/h (0 Bft) S 180 0 min 16,0 C 21,9 C 0,0 km/h (0 Bft)
06.08.2021 10:15 19,2 C 17,8 C 17,0 C 22,3 C 22,3 C 3,1 C 81 % 94 % 1005,3 hPa 0,0 l/m 0,0 km/h (0 Bft) S-SO 157 0 min 15,9 C 22,3 C 0,0 km/h (0 Bft)
06.08.2021 10:20 19,2 C 17,8 C 17,1 C 22,3 C 22,3 C 3,1 C 81 % 94 % 1005,3 hPa 0,0 l/m 0,0 km/h (0 Bft) SW 225 0 min 15,9 C 22,3 C 0,0 km/h (0 Bft)
06.08.2021 10:25 19,2 C 17,7 C 17,2 C 22,5 C 22,5 C 3,3 C 81 % 94 % 1005,3 hPa 0,0 l/m 0,0 km/h (0 Bft) S-SO 157 5 min 15,9 C 22,5 C 0,0 km/h (0 Bft)
06.08.2021 10:30 19,4 C 17,8 C 17,4 C 22,7 C 22,7 C 3,3 C 81 % 94 % 1005,3 hPa 0,0 l/m 0,0 km/h (0 Bft) NW 315 5 min 16,1 C 22,7 C 0,0 km/h (0 Bft)
06.08.2021 10:35 19,5 C 17,8 C 17,6 C 22,5 C 22,5 C 3,0 C 81 % 94 % 1005,2 hPa 0,0 l/m 0,2 km/h (0 Bft) W-SW 247 0 min 16,1 C 22,5 C 0,0 km/h (0 Bft)
06.08.2021 10:40 19,5 C 17,7 C 17,6 C 22,3 C 22,3 C 2,8 C 81 % 94 % 1005,2 hPa 0,0 l/m 0,2 km/h (0 Bft) SW 225 0 min 16,1 C 22,3 C 0,0 km/h (0 Bft)
06.08.2021 10:45 19,5 C 17,8 C 17,6 C 21,9 C 21,9 C 2,4 C 81 % 94 % 1005,2 hPa 0,0 l/m 0,2 km/h (0 Bft) S 180 0 min 16,1 C 21,9 C 0,0 km/h (0 Bft)
06.08.2021 10:50 19,7 C 17,7 C 17,7 C 21,9 C 21,9 C 2,2 C 81 % 94 % 1005,2 hPa 0,0 l/m 0,0 km/h (0 Bft) SW 225 0 min 16,3 C 21,9 C 0,0 km/h (0 Bft)
06.08.2021 10:55 19,6 C 17,7 C 17,9 C 21,9 C 21,9 C 2,3 C 81 % 94 % 1005,2 hPa 0,0 l/m 0,0 km/h (0 Bft) S-SO 157 0 min 16,2 C 21,9 C 0,0 km/h (0 Bft)
06.08.2021 11:00 19,8 C 17,7 C 18,1 C 22,6 C 22,6 C 2,8 C 81 % 94 % 1005,2 hPa 0,0 l/m 0,0 km/h (0 Bft) S 180 0 min 16,4 C 22,6 C 0,0 km/h (0 Bft)
06.08.2021 11:05 19,9 C 17,7 C 18,2 C 26,0 C 26,0 C 6,1 C 80 % 94 % 1005,2 hPa 0,0 l/m 0,0 km/h (0 Bft) SW 225 5 min 16,3 C 26,0 C 0,0 km/h (0 Bft)
06.08.2021 11:10 20,1 C 17,7 C 18,3 C 25,6 C 25,6 C 5,5 C 80 % 94 % 1005,2 hPa 0,0 l/m 0,0 km/h (0 Bft) SW 225 5 min 16,5 C 25,6 C 0,0 km/h (0 Bft)
06.08.2021 11:15 20,1 C 17,7 C 18,4 C 24,6 C 24,6 C 4,5 C 79 % 94 % 1004,9 hPa 0,0 l/m 0,0 km/h (0 Bft) W-SW 247 5 min 16,3 C 24,6 C 0,0 km/h (0 Bft)
06.08.2021 11:20 20,3 C 17,7 C 18,5 C 24,4 C 24,4 C 4,1 C 78 % 94 % 1004,9 hPa 0,0 l/m 0,2 km/h (0 Bft) S-SO 157 5 min 16,3 C 24,4 C 0,0 km/h (0 Bft)
06.08.2021 11:25 20,4 C 17,7 C 19,0 C 24,2 C 24,2 C 3,8 C 78 % 94 % 1004,9 hPa 0,0 l/m 0,8 km/h (0 Bft) W-SW 247 5 min 16,4 C 24,2 C 1,8 km/h (1 Bft)
06.08.2021 11:30 20,7 C 17,7 C 19,2 C 24,4 C 24,4 C 3,7 C 78 % 94 % 1004,9 hPa 0,0 l/m 0,8 km/h (0 Bft) SW 225 5 min 16,7 C 24,4 C 0,0 km/h (0 Bft)
06.08.2021 11:35 20,8 C 17,7 C 19,3 C 24,4 C 24,4 C 3,6 C 78 % 94 % 1005,1 hPa 0,0 l/m 0,6 km/h (0 Bft) SW 225 5 min 16,8 C 24,4 C 2,4 km/h (1 Bft)
06.08.2021 11:40 20,9 C 17,7 C 19,3 C 24,4 C 24,4 C 3,5 C 78 % 94 % 1005,1 hPa 0,0 l/m 0,5 km/h (0 Bft) S 180 5 min 16,9 C 24,4 C 0,0 km/h (0 Bft)
06.08.2021 11:45 20,9 C 17,7 C 19,4 C 24,4 C 24,4 C 3,5 C 77 % 94 % 1005,1 hPa 0,0 l/m 0,2 km/h (0 Bft) S-SW 202 5 min 16,7 C 24,4 C 0,0 km/h (0 Bft)
06.08.2021 11:50 21,1 C 17,7 C 19,5 C 24,5 C 24,5 C 3,4 C 77 % 94 % 1005,1 hPa 0,0 l/m 0,3 km/h (0 Bft) SW 225 5 min 16,9 C 24,5 C 0,0 km/h (0 Bft)
06.08.2021 11:55 21,2 C 17,7 C 19,6 C 24,7 C 24,7 C 3,5 C 76 % 93 % 1005,1 hPa 0,0 l/m 0,3 km/h (0 Bft) W-SW 247 5 min 16,8 C 24,7 C 1,8 km/h (1 Bft)
06.08.2021 12:00 21,3 C 17,7 C 19,7 C 24,9 C 24,9 C 3,6 C 75 % 93 % 1005,1 hPa 0,0 l/m 0,3 km/h (0 Bft) S-SO 157 5 min 16,7 C 24,9 C 4,7 km/h (1 Bft)
06.08.2021 12:05 21,6 C 17,7 C 20,1 C 25,1 C 25,1 C 3,5 C 74 % 93 % 1005,1 hPa 0,0 l/m 1,1 km/h (1 Bft) SW 225 5 min 16,8 C 25,1 C 1,9 km/h (1 Bft)
06.08.2021 12:10 21,6 C 17,7 C 20,4 C 25,3 C 25,3 C 3,7 C 73 % 92 % 1005,1 hPa 0,0 l/m 1,6 km/h (1 Bft) SO 135 5 min 16,5 C 25,3 C 4,8 km/h (1 Bft)
06.08.2021 12:15 21,9 C 17,8 C 20,9 C 25,3 C 25,3 C 3,4 C 73 % 93 % 1005,1 hPa 0,0 l/m 1,3 km/h (1 Bft) S 180 5 min 16,8 C 25,3 C 4,5 km/h (1 Bft)
06.08.2021 12:20 22,0 C 17,7 C 20,7 C 25,9 C 25,9 C 3,9 C 73 % 92 % 1005,1 hPa 0,0 l/m 0,8 km/h (0 Bft) SW 225 5 min 16,9 C 25,9 C 0,0 km/h (0 Bft)
06.08.2021 12:25 22,3 C 17,7 C 21,0 C 26,5 C 26,5 C 4,2 C 73 % 91 % 1005,1 hPa 0,0 l/m 0,5 km/h (0 Bft) O 90 5 min 17,2 C 26,5 C 2,6 km/h (1 Bft)
06.08.2021 12:30 22,8 C 17,7 C 21,1 C 27,3 C 27,3 C 4,5 C 72 % 91 % 1005,1 hPa 0,0 l/m 0,3 km/h (0 Bft) NO 45 5 min 17,5 C 27,3 C 0,0 km/h (0 Bft)
06.08.2021 12:35 23,2 C 17,7 C 21,0 C 27,7 C 27,7 C 4,5 C 70 % 90 % 1004,6 hPa 0,0 l/m 0,8 km/h (0 Bft) S-SO 157 5 min 17,4 C 27,7 C 5,0 km/h (1 Bft)
06.08.2021 12:40 23,3 C 17,7 C 21,0 C 27,5 C 27,5 C 4,2 C 68 % 90 % 1004,6 hPa 0,0 l/m 0,8 km/h (0 Bft) S-SW 202 5 min 17,1 C 27,5 C 5,8 km/h (2 Bft)
06.08.2021 12:45 23,3 C 17,7 C 20,9 C 27,2 C 27,2 C 3,9 C 68 % 90 % 1004,6 hPa 0,0 l/m 0,8 km/h (0 Bft) S-SW 202 5 min 17,1 C 27,2 C 0,0 km/h (0 Bft)
06.08.2021 12:50 23,2 C 17,7 C 21,1 C 27,1 C 27,1 C 3,9 C 68 % 90 % 1004,6 hPa 0,0 l/m 0,5 km/h (0 Bft) W-SW 247 5 min 17,0 C 27,1 C 2,4 km/h (1 Bft)
06.08.2021 12:55 23,4 C 17,8 C 21,1 C 28,5 C 28,5 C 5,1 C 68 % 89 % 1004,6 hPa 0,0 l/m 0,3 km/h (0 Bft) NO 45 5 min 17,1 C 28,5 C 0,0 km/h (0 Bft)
06.08.2021 13:00 23,7 C 17,8 C 21,3 C 29,1 C 29,1 C 5,4 C 67 % 89 % 1004,6 hPa 0,0 l/m 0,5 km/h (0 Bft) SW 225 5 min 17,2 C 29,1 C 0,0 km/h (0 Bft)
06.08.2021 13:05 24,0 C 17,8 C 21,4 C 29,1 C 29,1 C 5,1 C 68 % 89 % 1004,6 hPa 0,0 l/m 0,5 km/h (0 Bft) SW 225 5 min 17,7 C 29,1 C 0,0 km/h (0 Bft)
06.08.2021 13:10 25,0 C 17,8 C 21,8 C 29,1 C 29,1 C 4,1 C 64 % 87 % 1004,6 hPa 0,0 l/m 0,5 km/h (0 Bft) SW 225 5 min 17,7 C 29,1 C 0,0 km/h (0 Bft)
06.08.2021 13:15 25,3 C 17,8 C 21,7 C 29,1 C 29,1 C 3,8 C 62 % 87 % 1004,5 hPa 0,0 l/m 0,5 km/h (0 Bft) SW 225 5 min 17,5 C 29,1 C 0,0 km/h (0 Bft)
06.08.2021 13:20 25,2 C 17,8 C 21,5 C 29,1 C 29,1 C 3,9 C 61 % 86 % 1004,5 hPa 0,0 l/m 0,5 km/h (0 Bft) SW 225 5 min 17,1 C 29,1 C 0,0 km/h (0 Bft)
06.08.2021 13:25 25,1 C 17,8 C 21,7 C 29,1 C 29,1 C 4,0 C 62 % 86 % 1004,5 hPa 0,0 l/m 0,0 km/h (0 Bft) SW 225 5 min 17,3 C 29,1 C 0,0 km/h (0 Bft)
06.08.2021 13:30 25,2 C 17,9 C 21,7 C 29,1 C 29,1 C 3,9 C 62 % 86 % 1004,5 hPa 0,0 l/m 0,0 km/h (0 Bft) SW 225 5 min 17,4 C 29,1 C 0,0 km/h (0 Bft)
06.08.2021 13:35 25,3 C 17,9 C 21,6 C 29,1 C 29,1 C 3,8 C 61 % 84 % 1004,6 hPa 0,0 l/m 0,0 km/h (0 Bft) SW 225 5 min 17,2 C 29,1 C 0,0 km/h (0 Bft)
06.08.2021 13:40 25,1 C 17,9 C 21,6 C 29,1 C 29,1 C 4,0 C 61 % 84 % 1004,6 hPa 0,0 l/m 0,0 km/h (0 Bft) SW 225 5 min 17,0 C 29,1 C 0,0 km/h (0 Bft)
06.08.2021 13:45 24,6 C 17,9 C 21,6 C 29,1 C 29,1 C 4,5 C 62 % 83 % 1004,6 hPa 0,0 l/m 0,0 km/h (0 Bft) SW 225 5 min 16,8 C 29,1 C 0,0 km/h (0 Bft)
06.08.2021 13:50 24,3 C 17,9 C 21,4 C 26,5 C 26,5 C 2,2 C 61 % 83 % 1004,6 hPa 0,0 l/m 1,4 km/h (1 Bft) NO 45 0 min 16,3 C 26,5 C 3,9 km/h (1 Bft)
06.08.2021 13:55 23,6 C 17,9 C 21,1 C 25,0 C 25,0 C 1,4 C 62 % 81 % 1004,5 hPa 0,0 l/m 2,7 km/h (1 Bft) W-SW 247 0 min 15,9 C 25,0 C 4,8 km/h (1 Bft)
06.08.2021 14:00 22,9 C 17,9 C 20,6 C 23,9 C 23,9 C 1,0 C 62 % 80 % 1004,5 hPa 0,0 l/m 3,4 km/h (1 Bft) SW 225 0 min 15,2 C 23,9 C 7,2 km/h (2 Bft)
06.08.2021 14:05 22,2 C 18,0 C 20,3 C 22,8 C 22,8 C 0,6 C 63 % 80 % 1004,5 hPa 0,0 l/m 3,1 km/h (1 Bft) W 270 0 min 14,8 C 22,8 C 3,7 km/h (1 Bft)
06.08.2021 14:10 21,9 C 18,0 C 20,2 C 22,3 C 22,3 C 0,4 C 65 % 80 % 1004,5 hPa 0,0 l/m 2,7 km/h (1 Bft) S 180 0 min 15,0 C 22,3 C 2,6 km/h (1 Bft)
06.08.2021 14:15 21,6 C 18,0 C 20,0 C 21,9 C 21,9 C 0,3 C 67 % 81 % 1004,8 hPa 0,0 l/m 1,6 km/h (1 Bft) W-SW 247 0 min 15,2 C 21,9 C 0,0 km/h (0 Bft)
06.08.2021 14:20 21,5 C 18,0 C 20,0 C 22,0 C 22,0 C 0,5 C 68 % 82 % 1004,8 hPa 0,0 l/m 0,6 km/h (0 Bft) W-SW 247 0 min 15,3 C 22,0 C 0,0 km/h (0 Bft)
06.08.2021 14:25 21,5 C 18,0 C 20,1 C 22,6 C 22,6 C 1,1 C 68 % 82 % 1004,8 hPa 0,0 l/m 0,2 km/h (0 Bft) NW 315 0 min 15,3 C 22,6 C 0,0 km/h (0 Bft)
06.08.2021 14:30 21,5 C 18,1 C 20,2 C 23,1 C 23,1 C 1,6 C 68 % 83 % 1004,8 hPa 0,0 l/m 0,3 km/h (0 Bft) S 180 0 min 15,3 C 23,1 C 2,4 km/h (1 Bft)
06.08.2021 14:35 21,6 C 18,1 C 20,1 C 23,6 C 23,6 C 2,0 C 68 % 83 % 1004,6 hPa 0,0 l/m 0,6 km/h (0 Bft) SW 225 0 min 15,4 C 23,6 C 1,8 km/h (1 Bft)
06.08.2021 14:40 21,6 C 18,1 C 20,3 C 24,1 C 24,1 C 2,5 C 68 % 82 % 1004,6 hPa 0,0 l/m 1,4 km/h (1 Bft) S-SW 202 0 min 15,4 C 24,1 C 5,1 km/h (1 Bft)
06.08.2021 14:45 21,9 C 18,1 C 20,7 C 25,5 C 25,5 C 3,6 C 69 % 84 % 1004,6 hPa 0,0 l/m 1,3 km/h (1 Bft) SW 225 5 min 15,9 C 25,5 C 1,6 km/h (1 Bft)
06.08.2021 14:50 22,0 C 18,1 C 20,9 C 26,2 C 26,2 C 4,2 C 69 % 83 % 1004,6 hPa 0,0 l/m 1,0 km/h (0 Bft) SW 225 5 min 16,0 C 26,2 C 0,0 km/h (0 Bft)
06.08.2021 14:55 22,4 C 18,1 C 21,4 C 28,3 C 28,3 C 5,9 C 69 % 84 % 1004,6 hPa 0,0 l/m 0,8 km/h (0 Bft) S 180 5 min 16,4 C 28,3 C 1,8 km/h (1 Bft)
06.08.2021 15:00 22,7 C 18,0 C 21,8 C 30,2 C 30,2 C 7,5 C 69 % 83 % 1004,6 hPa 0,0 l/m 0,6 km/h (0 Bft) SW 225 5 min 16,7 C 30,2 C 2,4 km/h (1 Bft)
06.08.2021 15:05 23,3 C 18,1 C 22,3 C 32,4 C 32,4 C 9,1 C 68 % 82 % 1004,6 hPa 0,0 l/m 1,3 km/h (1 Bft) SW 225 5 min 17,1 C 32,4 C 1,8 km/h (1 Bft)
06.08.2021 15:10 23,5 C 18,1 C 22,7 C 33,0 C 33,0 C 9,5 C 67 % 80 % 1004,6 hPa 0,0 l/m 2,1 km/h (1 Bft) S 180 5 min 17,0 C 33,0 C 4,3 km/h (1 Bft)
06.08.2021 15:15 23,7 C 18,1 C 22,9 C 32,8 C 32,8 C 9,1 C 64 % 79 % 1004,4 hPa 0,0 l/m 2,6 km/h (1 Bft) W 270 5 min 16,5 C 32,8 C 4,2 km/h (1 Bft)
06.08.2021 15:20 23,6 C 18,1 C 22,8 C 32,4 C 32,4 C 8,8 C 64 % 78 % 1004,4 hPa 0,0 l/m 2,7 km/h (1 Bft) W-SW 247 5 min 16,4 C 32,4 C 3,5 km/h (1 Bft)
06.08.2021 15:25 23,6 C 18,1 C 22,7 C 32,0 C 32,0 C 8,4 C 66 % 78 % 1004,4 hPa 0,0 l/m 1,9 km/h (1 Bft) S-SW 202 5 min 16,9 C 32,0 C 0,0 km/h (0 Bft)
06.08.2021 15:30 23,7 C 18,1 C 22,7 C 31,0 C 31,0 C 7,3 C 65 % 77 % 1004,4 hPa 0,0 l/m 1,6 km/h (1 Bft) W-SW 247 5 min 16,7 C 31,0 C 2,1 km/h (1 Bft)
06.08.2021 15:35 23,7 C 18,1 C 22,6 C 30,8 C 30,8 C 7,1 C 66 % 77 % 1004,4 hPa 0,0 l/m 1,6 km/h (1 Bft) S 180 5 min 17,0 C 30,8 C 2,3 km/h (1 Bft)
06.08.2021 15:40 23,7 C 18,2 C 22,6 C 30,8 C 30,8 C 7,1 C 66 % 77 % 1004,4 hPa 0,0 l/m 1,4 km/h (1 Bft) S-SW 202 5 min 17,0 C 30,8 C 2,9 km/h (1 Bft)
06.08.2021 15:45 23,8 C 18,2 C 22,6 C 31,0 C 31,0 C 7,2 C 67 % 76 % 1004,4 hPa 0,0 l/m 0,8 km/h (0 Bft) W 270 5 min 17,3 C 31,0 C 2,3 km/h (1 Bft)
06.08.2021 15:50 23,7 C 18,2 C 22,6 C 31,0 C 31,0 C 7,3 C 66 % 76 % 1004,4 hPa 0,0 l/m 1,1 km/h (1 Bft) O-SO 112 5 min 17,0 C 31,0 C 3,5 km/h (1 Bft)
06.08.2021 15:55 23,7 C 18,2 C 22,6 C 30,6 C 30,6 C 6,9 C 65 % 75 % 1004,1 hPa 0,0 l/m 1,9 km/h (1 Bft) S-SO 157 5 min 16,7 C 30,6 C 1,9 km/h (1 Bft)
06.08.2021 16:00 23,7 C 18,2 C 22,7 C 30,6 C 30,6 C 6,9 C 65 % 75 % 1004,1 hPa 0,0 l/m 2,6 km/h (1 Bft) W 270 5 min 16,7 C 30,6 C 7,9 km/h (2 Bft)
06.08.2021 16:05 23,6 C 18,3 C 22,7 C 29,5 C 29,5 C 5,9 C 66 % 74 % 1004,1 hPa 0,0 l/m 2,3 km/h (1 Bft) SO 135 5 min 16,9 C 29,5 C 3,7 km/h (1 Bft)
06.08.2021 16:10 23,6 C 18,3 C 22,7 C 29,7 C 29,7 C 6,1 C 65 % 73 % 1004,1 hPa 0,0 l/m 2,9 km/h (1 Bft) S 180 5 min 16,6 C 29,7 C 5,5 km/h (1 Bft)
06.08.2021 16:15 23,5 C 18,3 C 22,5 C 28,5 C 28,5 C 5,0 C 64 % 73 % 1004,2 hPa 0,0 l/m 3,5 km/h (1 Bft) SW 225 5 min 16,3 C 28,5 C 1,9 km/h (1 Bft)
06.08.2021 16:20 23,3 C 18,3 C 22,3 C 27,7 C 27,7 C 4,4 C 64 % 73 % 1004,2 hPa 0,0 l/m 3,2 km/h (1 Bft) SW 225 5 min 16,1 C 27,7 C 13,2 km/h (3 Bft)
06.08.2021 16:25 23,1 C 18,3 C 22,2 C 26,5 C 26,5 C 3,4 C 64 % 73 % 1004,2 hPa 0,0 l/m 3,4 km/h (1 Bft) S-SW 202 5 min 15,9 C 26,5 C 1,9 km/h (1 Bft)
06.08.2021 16:30 23,1 C 18,3 C 22,4 C 27,7 C 27,7 C 4,6 C 65 % 73 % 1004,2 hPa 0,0 l/m 3,5 km/h (1 Bft) W-SW 247 5 min 16,2 C 27,7 C 3,9 km/h (1 Bft)
06.08.2021 16:35 23,3 C 18,3 C 22,3 C 27,6 C 27,6 C 4,3 C 65 % 72 % 1004,4 hPa 0,0 l/m 2,7 km/h (1 Bft) SW 225 5 min 16,3 C 27,6 C 1,9 km/h (1 Bft)
06.08.2021 16:40 23,2 C 18,3 C 22,2 C 27,0 C 27,0 C 3,8 C 64 % 72 % 1004,4 hPa 0,0 l/m 3,1 km/h (1 Bft) SO 135 5 min 16,0 C 27,0 C 6,3 km/h (2 Bft)
06.08.2021 16:45 22,9 C 18,4 C 22,0 C 26,1 C 26,1 C 3,2 C 64 % 71 % 1004,4 hPa 0,0 l/m 3,9 km/h (1 Bft) SW 225 0 min 15,7 C 26,1 C 6,0 km/h (2 Bft)
06.08.2021 16:50 22,9 C 18,4 C 22,0 C 25,7 C 25,7 C 2,8 C 65 % 72 % 1004,4 hPa 0,0 l/m 4,2 km/h (1 Bft) W-SW 247 0 min 16,0 C 25,7 C 5,1 km/h (1 Bft)
06.08.2021 16:55 22,8 C 18,4 C 22,1 C 25,7 C 25,7 C 2,9 C 65 % 72 % 1004,7 hPa 0,0 l/m 3,4 km/h (1 Bft) SW 225 0 min 15,9 C 25,7 C 3,7 km/h (1 Bft)
06.08.2021 17:00 22,9 C 18,4 C 22,2 C 25,9 C 25,9 C 3,0 C 65 % 72 % 1004,7 hPa 0,0 l/m 3,2 km/h (1 Bft) SW 225 0 min 16,0 C 25,9 C 3,2 km/h (1 Bft)
06.08.2021 17:05 23,2 C 18,4 C 22,6 C 26,6 C 26,6 C 3,4 C 65 % 72 % 1004,7 hPa 0,0 l/m 3,1 km/h (1 Bft) SW 225 5 min 16,2 C 26,6 C 4,3 km/h (1 Bft)
06.08.2021 17:10 23,3 C 18,4 C 22,7 C 26,7 C 26,7 C 3,4 C 65 % 70 % 1004,7 hPa 0,0 l/m 2,7 km/h (1 Bft) SO 135 5 min 16,3 C 26,7 C 5,3 km/h (1 Bft)
06.08.2021 17:15 23,5 C 18,5 C 23,0 C 26,8 C 26,8 C 3,3 C 64 % 70 % 1004,4 hPa 0,0 l/m 2,9 km/h (1 Bft) O-SO 112 5 min 16,3 C 26,8 C 3,9 km/h (1 Bft)
06.08.2021 17:20 23,6 C 18,4 C 23,1 C 26,7 C 26,7 C 3,1 C 63 % 68 % 1004,4 hPa 0,0 l/m 3,4 km/h (1 Bft) W 270 0 min 16,1 C 26,7 C 4,2 km/h (1 Bft)
06.08.2021 17:25 23,7 C 18,4 C 23,0 C 26,3 C 26,3 C 2,6 C 62 % 68 % 1004,4 hPa 0,0 l/m 3,4 km/h (1 Bft) SW 225 0 min 16,0 C 26,3 C 3,1 km/h (1 Bft)
06.08.2021 17:30 23,7 C 18,4 C 23,0 C 25,9 C 25,9 C 2,2 C 63 % 69 % 1004,4 hPa 0,0 l/m 2,6 km/h (1 Bft) N 360 0 min 16,2 C 25,9 C 2,4 km/h (1 Bft)
06.08.2021 17:35 23,9 C 18,4 C 22,9 C 25,7 C 25,7 C 1,8 C 62 % 69 % 1004,4 hPa 0,0 l/m 1,9 km/h (1 Bft) W 270 0 min 16,2 C 25,7 C 2,1 km/h (1 Bft)
06.08.2021 17:40 23,9 C 18,4 C 22,7 C 25,3 C 25,3 C 1,4 C 62 % 69 % 1004,4 hPa 0,0 l/m 1,6 km/h (1 Bft) W-SW 247 0 min 16,2 C 25,3 C 0,0 km/h (0 Bft)
06.08.2021 17:45 23,7 C 18,5 C 22,7 C 25,2 C 25,2 C 1,5 C 63 % 70 % 1004,4 hPa 0,0 l/m 1,6 km/h (1 Bft) SW 225 0 min 16,2 C 25,2 C 5,6 km/h (1 Bft)
06.08.2021 17:50 23,7 C 18,5 C 22,8 C 25,4 C 25,4 C 1,7 C 61 % 68 % 1004,4 hPa 0,0 l/m 2,1 km/h (1 Bft) S 180 0 min 15,7 C 25,4 C 4,3 km/h (1 Bft)
06.08.2021 17:55 23,5 C 18,5 C 22,4 C 24,7 C 24,7 C 1,2 C 61 % 68 % 1004,4 hPa 0,0 l/m 2,9 km/h (1 Bft) W-SW 247 0 min 15,5 C 24,7 C 1,9 km/h (1 Bft)
06.08.2021 18:00 23,4 C 18,5 C 22,3 C 24,6 C 24,6 C 1,2 C 62 % 69 % 1004,4 hPa 0,0 l/m 2,6 km/h (1 Bft) S 180 0 min 15,7 C 24,6 C 2,3 km/h (1 Bft)
06.08.2021 18:05 23,5 C 18,5 C 22,3 C 24,5 C 24,5 C 1,0 C 62 % 69 % 1004,4 hPa 0,0 l/m 2,3 km/h (1 Bft) SW 225 0 min 15,8 C 24,5 C 2,9 km/h (1 Bft)
06.08.2021 18:10 23,4 C 18,6 C 22,3 C 24,5 C 24,5 C 1,1 C 62 % 69 % 1004,4 hPa 0,0 l/m 2,7 km/h (1 Bft) SW 225 0 min 15,7 C 24,5 C 5,8 km/h (2 Bft)
06.08.2021 18:15 23,1 C 18,6 C 21,8 C 23,7 C 23,7 C 0,6 C 62 % 68 % 1004,4 hPa 0,0 l/m 3,1 km/h (1 Bft) S-SO 157 0 min 15,4 C 23,7 C 4,2 km/h (1 Bft)
06.08.2021 18:20 23,0 C 18,6 C 21,8 C 23,5 C 23,5 C 0,5 C 62 % 68 % 1004,4 hPa 0,0 l/m 3,1 km/h (1 Bft) S 180 0 min 15,3 C 23,5 C 3,2 km/h (1 Bft)
06.08.2021 18:25 22,9 C 18,6 C 21,7 C 23,3 C 23,3 C 0,4 C 63 % 70 % 1004,4 hPa 0,0 l/m 2,3 km/h (1 Bft) S 180 0 min 15,5 C 23,3 C 2,7 km/h (1 Bft)
06.08.2021 18:30 22,9 C 18,6 C 21,5 C 23,2 C 23,2 C 0,3 C 63 % 70 % 1004,4 hPa 0,0 l/m 2,4 km/h (1 Bft) NO 45 0 min 15,5 C 23,2 C 3,5 km/h (1 Bft)
06.08.2021 18:35 22,6 C 18,6 C 21,4 C 23,0 C 23,0 C 0,4 C 64 % 71 % 1004,7 hPa 0,0 l/m 2,3 km/h (1 Bft) O-SO 112 0 min 15,4 C 23,0 C 2,7 km/h (1 Bft)
06.08.2021 18:40 22,7 C 18,6 C 21,3 C 22,9 C 22,9 C 0,2 C 64 % 71 % 1004,7 hPa 0,0 l/m 1,9 km/h (1 Bft) S 180 0 min 15,5 C 22,9 C 2,9 km/h (1 Bft)
06.08.2021 18:45 22,3 C 18,6 C 21,1 C 22,6 C 22,6 C 0,3 C 64 % 70 % 1004,7 hPa 0,0 l/m 2,1 km/h (1 Bft) W-SW 247 0 min 15,2 C 22,6 C 2,4 km/h (1 Bft)
06.08.2021 18:50 22,3 C 18,6 C 20,9 C 22,4 C 22,4 C 0,1 C 64 % 71 % 1004,7 hPa 0,0 l/m 2,1 km/h (1 Bft) SW 225 0 min 15,2 C 22,4 C 3,4 km/h (1 Bft)
06.08.2021 18:55 22,0 C 18,7 C 20,7 C 22,2 C 22,2 C 0,2 C 65 % 71 % 1004,9 hPa 0,0 l/m 1,3 km/h (1 Bft) S-SW 202 0 min 15,1 C 22,2 C 1,9 km/h (1 Bft)
06.08.2021 19:00 21,8 C 18,7 C 20,7 C 22,0 C 22,0 C 0,2 C 65 % 71 % 1004,9 hPa 0,0 l/m 1,1 km/h (1 Bft) S-SO 157 0 min 14,9 C 22,0 C 0,0 km/h (0 Bft)
06.08.2021 19:05 21,7 C 18,7 C 20,5 C 21,7 C 21,6 C 0,0 C 65 % 71 % 1004,9 hPa 0,0 l/m 1,3 km/h (1 Bft) W-SW 247 0 min 14,8 C 21,6 C 2,6 km/h (1 Bft)
06.08.2021 19:10 21,7 C 18,7 C 20,3 C 21,6 C 21,4 C 0,0 C 65 % 71 % 1004,9 hPa 0,0 l/m 1,1 km/h (1 Bft) W 270 0 min 14,8 C 21,4 C 0,0 km/h (0 Bft)
06.08.2021 19:15 21,4 C 18,7 C 20,2 C 21,3 C 21,2 C 0,0 C 65 % 71 % 1005,2 hPa 0,0 l/m 1,1 km/h (1 Bft) O-NO 67 0 min 14,5 C 21,2 C 2,1 km/h (1 Bft)
06.08.2021 19:20 21,3 C 18,7 C 20,1 C 21,2 C 21,0 C 0,0 C 66 % 72 % 1005,2 hPa 0,0 l/m 0,5 km/h (0 Bft) S 180 0 min 14,7 C 21,0 C 1,8 km/h (1 Bft)
06.08.2021 19:25 21,3 C 18,7 C 19,9 C 21,1 C 20,8 C 0,0 C 66 % 73 % 1005,2 hPa 0,0 l/m 0,5 km/h (0 Bft) S 180 0 min 14,7 C 20,8 C 0,0 km/h (0 Bft)
06.08.2021 19:30 21,1 C 18,7 C 19,9 C 21,0 C 20,8 C 0,0 C 67 % 73 % 1005,2 hPa 0,0 l/m 0,5 km/h (0 Bft) O-SO 112 0 min 14,7 C 20,8 C 0,0 km/h (0 Bft)
06.08.2021 19:35 21,1 C 18,7 C 19,9 C 21,0 C 20,8 C 0,0 C 67 % 74 % 1005,2 hPa 0,0 l/m 0,0 km/h (0 Bft) SO 135 0 min 14,7 C 20,8 C 0,0 km/h (0 Bft)
06.08.2021 19:40 21,0 C 18,7 C 19,8 C 21,0 C 20,9 C 0,0 C 67 % 74 % 1005,2 hPa 0,0 l/m 0,0 km/h (0 Bft) S 180 0 min 14,6 C 20,9 C 0,0 km/h (0 Bft)
06.08.2021 19:45 21,1 C 18,7 C 19,8 C 21,1 C 21,0 C 0,0 C 67 % 74 % 1005,2 hPa 0,0 l/m 0,2 km/h (0 Bft) W-SW 247 0 min 14,7 C 21,0 C 0,0 km/h (0 Bft)
06.08.2021 19:50 21,0 C 18,8 C 19,8 C 21,0 C 20,9 C 0,0 C 68 % 74 % 1005,2 hPa 0,0 l/m 0,6 km/h (0 Bft) SW 225 0 min 14,9 C 20,9 C 2,9 km/h (1 Bft)
06.08.2021 19:55 20,9 C 18,8 C 19,6 C 20,8 C 20,7 C 0,0 C 68 % 75 % 1005,2 hPa 0,0 l/m 0,5 km/h (0 Bft) NW 315 0 min 14,8 C 20,7 C 0,0 km/h (0 Bft)
06.08.2021 20:00 20,8 C 18,8 C 19,5 C 20,7 C 20,5 C 0,0 C 68 % 75 % 1005,2 hPa 0,0 l/m 0,3 km/h (0 Bft) O-SO 112 0 min 14,7 C 20,5 C 0,0 km/h (0 Bft)
06.08.2021 20:05 20,7 C 18,8 C 19,4 C 20,5 C 20,2 C 0,0 C 69 % 76 % 1005,2 hPa 0,0 l/m 0,2 km/h (0 Bft) SO 135 0 min 14,8 C 20,2 C 1,8 km/h (1 Bft)
06.08.2021 20:10 20,6 C 18,8 C 19,3 C 20,4 C 20,0 C 0,0 C 69 % 76 % 1005,2 hPa 0,0 l/m 0,5 km/h (0 Bft) W-NW 292 0 min 14,7 C 20,0 C 3,9 km/h (1 Bft)
06.08.2021 20:15 20,5 C 18,8 C 19,2 C 20,3 C 19,8 C 0,0 C 69 % 75 % 1005,4 hPa 0,0 l/m 0,8 km/h (0 Bft) O-NO 67 0 min 14,6 C 19,8 C 0,0 km/h (0 Bft)
06.08.2021 20:20 20,4 C 18,8 C 19,1 C 20,1 C 19,6 C 0,0 C 69 % 76 % 1005,4 hPa 0,0 l/m 0,6 km/h (0 Bft) S 180 0 min 14,5 C 19,6 C 0,0 km/h (0 Bft)
06.08.2021 20:25 20,3 C 18,8 C 19,0 C 20,0 C 19,3 C 0,0 C 69 % 76 % 1005,4 hPa 0,0 l/m 0,2 km/h (0 Bft) S-SW 202 0 min 14,4 C 19,3 C 0,0 km/h (0 Bft)
06.08.2021 20:30 20,1 C 18,8 C 18,8 C 19,8 C 19,1 C 0,0 C 70 % 77 % 1005,4 hPa 0,0 l/m 0,0 km/h (0 Bft) S 180 0 min 14,5 C 19,1 C 0,0 km/h (0 Bft)
06.08.2021 20:35 20,1 C 18,8 C 18,6 C 19,7 C 18,8 C 0,0 C 70 % 78 % 1005,2 hPa 0,0 l/m 0,0 km/h (0 Bft) W-SW 247 0 min 14,5 C 18,8 C 0,0 km/h (0 Bft)
06.08.2021 20:40 19,9 C 18,8 C 18,5 C 19,5 C 18,7 C 0,0 C 70 % 78 % 1005,2 hPa 0,0 l/m 0,0 km/h (0 Bft) S 180 0 min 14,3 C 18,7 C 0,0 km/h (0 Bft)
06.08.2021 20:45 19,7 C 18,8 C 18,3 C 19,2 C 18,3 C 0,0 C 70 % 78 % 1005,2 hPa 0,0 l/m 0,0 km/h (0 Bft) S-SO 157 0 min 14,1 C 18,3 C 0,0 km/h (0 Bft)
06.08.2021 20:50 19,6 C 18,8 C 18,1 C 19,1 C 18,2 C 0,0 C 71 % 79 % 1005,2 hPa 0,0 l/m 0,0 km/h (0 Bft) SW 225 0 min 14,2 C 18,2 C 0,0 km/h (0 Bft)
06.08.2021 20:55 19,4 C 18,8 C 18,0 C 18,9 C 17,9 C 0,0 C 72 % 79 % 1005,2 hPa 0,0 l/m 0,0 km/h (0 Bft) S 180 0 min 14,2 C 17,9 C 0,0 km/h (0 Bft)
06.08.2021 21:00 19,2 C 18,8 C 17,9 C 18,7 C 17,7 C 0,0 C 72 % 80 % 1005,2 hPa 0,0 l/m 0,0 km/h (0 Bft) SW 225 0 min 14,0 C 17,7 C 0,0 km/h (0 Bft)
06.08.2021 21:05 19,1 C 18,8 C 17,9 C 18,6 C 17,5 C 0,0 C 72 % 81 % 1005,2 hPa 0,0 l/m 0,0 km/h (0 Bft) S 180 0 min 13,9 C 17,5 C 0,0 km/h (0 Bft)
06.08.2021 21:10 18,9 C 18,8 C 17,8 C 18,4 C 17,4 C 0,0 C 73 % 81 % 1005,2 hPa 0,0 l/m 0,0 km/h (0 Bft) S-SO 157 0 min 13,9 C 17,4 C 1,8 km/h (1 Bft)
06.08.2021 21:15 18,9 C 18,8 C 17,8 C 18,5 C 17,6 C 0,0 C 73 % 81 % 1005,5 hPa 0,0 l/m 0,2 km/h (0 Bft) S-SO 157 0 min 13,9 C 17,6 C 0,0 km/h (0 Bft)
06.08.2021 21:20 18,8 C 18,8 C 17,8 C 18,4 C 17,5 C 0,0 C 74 % 81 % 1005,5 hPa 0,0 l/m 0,2 km/h (0 Bft) S-SW 202 0 min 14,1 C 17,5 C 0,0 km/h (0 Bft)
06.08.2021 21:25 18,7 C 18,8 C 17,7 C 18,3 C 17,6 C 0,0 C 74 % 82 % 1005,5 hPa 0,0 l/m 0,0 km/h (0 Bft) SO 135 0 min 14,0 C 17,6 C 0,0 km/h (0 Bft)
06.08.2021 21:30 18,6 C 18,8 C 17,8 C 18,3 C 17,7 C 0,0 C 75 % 82 % 1005,5 hPa 0,0 l/m 0,0 km/h (0 Bft) NW 315 0 min 14,1 C 17,7 C 0,0 km/h (0 Bft)
06.08.2021 21:35 18,7 C 18,8 C 17,7 C 18,4 C 17,8 C 0,0 C 75 % 82 % 1005,6 hPa 0,0 l/m 0,0 km/h (0 Bft) S-SW 202 0 min 14,2 C 17,8 C 0,0 km/h (0 Bft)
06.08.2021 21:40 18,6 C 18,8 C 17,7 C 18,3 C 17,7 C 0,0 C 75 % 82 % 1005,6 hPa 0,0 l/m 0,0 km/h (0 Bft) W-SW 247 0 min 14,1 C 17,7 C 0,0 km/h (0 Bft)
06.08.2021 21:45 18,5 C 18,8 C 17,7 C 18,2 C 17,7 C 0,0 C 76 % 81 % 1005,6 hPa 0,0 l/m 0,2 km/h (0 Bft) W-SW 247 0 min 14,2 C 17,7 C 0,0 km/h (0 Bft)
06.08.2021 21:50 18,5 C 18,8 C 17,7 C 18,2 C 17,7 C 0,0 C 76 % 82 % 1005,6 hPa 0,0 l/m 0,2 km/h (0 Bft) S 180 0 min 14,2 C 17,7 C 0,0 km/h (0 Bft)
06.08.2021 21:55 18,4 C 18,8 C 17,7 C 18,2 C 17,8 C 0,0 C 76 % 82 % 1005,3 hPa 0,0 l/m 0,0 km/h (0 Bft) S 180 0 min 14,1 C 17,8 C 0,0 km/h (0 Bft)
06.08.2021 22:00 18,5 C 18,8 C 17,8 C 18,3 C 17,9 C 0,0 C 77 % 82 % 1005,3 hPa 0,0 l/m 0,2 km/h (0 Bft) O-SO 112 0 min 14,4 C 17,9 C 1,9 km/h (1 Bft)
06.08.2021 22:05 18,5 C 18,8 C 17,8 C 18,4 C 18,1 C 0,0 C 77 % 82 % 1005,3 hPa 0,0 l/m 0,2 km/h (0 Bft) O-SO 112 0 min 14,4 C 18,1 C 0,0 km/h (0 Bft)
06.08.2021 22:10 18,5 C 18,8 C 17,8 C 18,4 C 18,1 C 0,0 C 77 % 82 % 1005,3 hPa 0,0 l/m 0,0 km/h (0 Bft) SO 135 0 min 14,4 C 18,1 C 0,0 km/h (0 Bft)
06.08.2021 22:15 18,5 C 18,8 C 17,8 C 18,3 C 18,0 C 0,0 C 77 % 82 % 1005,8 hPa 0,0 l/m 0,0 km/h (0 Bft) S-SO 157 0 min 14,4 C 18,0 C 1,6 km/h (1 Bft)
06.08.2021 22:20 18,5 C 18,8 C 17,8 C 18,3 C 17,9 C 0,0 C 77 % 82 % 1005,8 hPa 0,0 l/m 0,2 km/h (0 Bft) S 180 0 min 14,4 C 17,9 C 0,0 km/h (0 Bft)
06.08.2021 22:25 18,5 C 18,8 C 17,7 C 18,3 C 17,8 C 0,0 C 77 % 82 % 1005,8 hPa 0,0 l/m 0,2 km/h (0 Bft) S-SO 157 0 min 14,4 C 17,8 C 0,0 km/h (0 Bft)
06.08.2021 22:30 18,4 C 18,8 C 17,7 C 18,2 C 17,8 C 0,0 C 77 % 82 % 1005,8 hPa 0,0 l/m 0,0 km/h (0 Bft) W-SW 247 0 min 14,3 C 17,8 C 0,0 km/h (0 Bft)
06.08.2021 22:35 18,5 C 18,8 C 17,6 C 18,2 C 17,7 C 0,0 C 77 % 83 % 1005,9 hPa 0,0 l/m 0,0 km/h (0 Bft) SW 225 0 min 14,4 C 17,7 C 0,0 km/h (0 Bft)
06.08.2021 22:40 18,4 C 18,8 C 17,6 C 18,2 C 17,8 C 0,0 C 77 % 83 % 1005,9 hPa 0,0 l/m 0,0 km/h (0 Bft) SO 135 0 min 14,3 C 17,8 C 0,0 km/h (0 Bft)
06.08.2021 22:45 18,4 C 18,8 C 17,5 C 18,2 C 17,9 C 0,0 C 77 % 83 % 1005,9 hPa 0,0 l/m 0,0 km/h (0 Bft) SW 225 0 min 14,3 C 17,9 C 0,0 km/h (0 Bft)
06.08.2021 22:50 18,4 C 18,8 C 17,6 C 18,2 C 17,9 C 0,0 C 77 % 83 % 1005,9 hPa 0,0 l/m 0,2 km/h (0 Bft) SO 135 0 min 14,3 C 17,9 C 0,0 km/h (0 Bft)
06.08.2021 22:55 18,4 C 18,8 C 17,6 C 18,3 C 18,0 C 0,0 C 78 % 83 % 1005,9 hPa 0,0 l/m 0,2 km/h (0 Bft) SO 135 0 min 14,5 C 18,0 C 0,0 km/h (0 Bft)
06.08.2021 23:00 18,4 C 18,8 C 17,6 C 18,3 C 18,0 C 0,0 C 78 % 83 % 1005,9 hPa 0,0 l/m 0,2 km/h (0 Bft) S 180 0 min 14,5 C 18,0 C 0,0 km/h (0 Bft)
06.08.2021 23:05 18,4 C 18,8 C 17,6 C 18,3 C 18,0 C 0,0 C 78 % 83 % 1005,9 hPa 0,0 l/m 0,0 km/h (0 Bft) O-SO 112 0 min 14,5 C 18,0 C 0,0 km/h (0 Bft)
06.08.2021 23:10 18,4 C 18,8 C 17,6 C 18,3 C 18,0 C 0,0 C 78 % 83 % 1005,9 hPa 0,0 l/m 0,0 km/h (0 Bft) S-SO 157 0 min 14,5 C 18,0 C 0,0 km/h (0 Bft)
06.08.2021 23:15 18,4 C 18,8 C 17,7 C 18,2 C 17,9 C 0,0 C 78 % 83 % 1005,4 hPa 0,0 l/m 0,0 km/h (0 Bft) SO 135 0 min 14,5 C 17,9 C 0,0 km/h (0 Bft)
06.08.2021 23:20 18,3 C 18,8 C 17,6 C 18,1 C 17,8 C 0,0 C 78 % 82 % 1005,4 hPa 0,0 l/m 0,2 km/h (0 Bft) SW 225 0 min 14,4 C 17,8 C 1,8 km/h (1 Bft)
06.08.2021 23:25 18,4 C 18,8 C 17,5 C 18,2 C 17,7 C 0,0 C 78 % 82 % 1005,4 hPa 0,0 l/m 0,3 km/h (0 Bft) S 180 0 min 14,5 C 17,7 C 0,0 km/h (0 Bft)
06.08.2021 23:30 18,3 C 18,8 C 17,5 C 18,1 C 17,6 C 0,0 C 77 % 82 % 1005,4 hPa 0,0 l/m 0,2 km/h (0 Bft) N-NO 22 0 min 14,2 C 17,6 C 0,0 km/h (0 Bft)
06.08.2021 23:35 18,2 C 18,8 C 17,4 C 18,0 C 17,5 C 0,0 C 77 % 82 % 1006,2 hPa 0,0 l/m 0,0 km/h (0 Bft) S 180 0 min 14,1 C 17,5 C 0,0 km/h (0 Bft)
06.08.2021 23:40 18,3 C 18,8 C 17,4 C 18,0 C 17,4 C 0,0 C 77 % 82 % 1006,2 hPa 0,0 l/m 0,2 km/h (0 Bft) SW 225 0 min 14,2 C 17,4 C 1,8 km/h (1 Bft)
06.08.2021 23:45 18,2 C 18,8 C 17,3 C 17,9 C 17,3 C 0,0 C 77 % 82 % 1006,2 hPa 0,0 l/m 0,2 km/h (0 Bft) O-SO 112 0 min 14,1 C 17,3 C 0,0 km/h (0 Bft)
06.08.2021 23:50 18,1 C 18,8 C 17,3 C 17,8 C 17,2 C 0,0 C 77 % 82 % 1006,2 hPa 0,0 l/m 0,2 km/h (0 Bft) S 180 0 min 14,0 C 17,2 C 0,0 km/h (0 Bft)
06.08.2021 23:55 18,0 C 18,8 C 17,2 C 17,7 C 17,0 C 0,0 C 77 % 82 % 1006,4 hPa 0,0 l/m 0,2 km/h (0 Bft) SW 225 0 min 13,9 C 17,0 C 0,0 km/h (0 Bft)
_ Min-Zeit 06:25 10:25 06:20 06:10 06:10 00:15 13:20 17:20 15:55 - 00:00 - - - 06:25 06:10 00:00
Minimum _ 10,8 C 17,7 C 12,2 C 11,4 C 11,4 C 0,0 C 61 % 68 % 1004,1 hPa - 0,0 km/h (0 Bft) - - - 8,9 C 11,4 C 0,0 km/h (0 Bft)
_ Max-Zeit 13:15 00:00 17:20 15:10 15:10 08:20 07:55 00:00 00:00 00:00 16:50 - - 05:55 13:05 15:10 16:20
Maximum _ 25,3 C 18,9 C 23,1 C 33,0 C 33,0 C 12,4 C 89 % 94 % 1006,7 hPa 0,0 l/m 4,2 km/h
W-SW (1 Bft)
- - 5 min 17,7 C 33,0 C 13,2 km/h
SW (3 Bft)
Durchschnitt _ 18,0 C 18,4 C 17,4 C 20,4 C 20,3 C 2,5 C 77 % 86 % 1005,3 hPa #0,0 l/m 0,6 km/h (0 Bft) SW - #7:35 h 13,8 C 20,3 C 0,9 km/h (0 Bft)
2021 www.wetterstation-wechselburg.de